Regional Weather Roundup
Issued by NWS Green Bay, WI

Home | Current Version | Previous Version | Text Only | Print | Product List | Glossary On
Versions: 1 2 3 4 5 6 7 8 9 10 11 12 13 14 15 16 17 18 19 20 21 22 23 24 25 26 27 28 29 30 31 32 33 34 35 36 37 38 39 40 41 42 43 44 45 46 47 48 49 50
000
ASUS43 KGRB 012010
RWRGRB

NORTH-CENTRAL AND NORTHEAST WISCONSIN REGIONAL WEATHER ROUNDUP
NATIONAL WEATHER SERVICE GREEN BAY WI
200 PM CST SUN MAR 01 2015

WIZ005-009-010>012-018-019-012100-
NORTH CENTRAL WISCONSIN

CITY           SKY/WX    TMP DP  RH WIND       PRES   REMARKS
IRONWOOD       CLOUDY    21   9  58 W17       30.04F WCI   7
MANITOWISH WTR FLURRIES  18   8  65 W13G22    30.06S WCI   5
ARBOR VITAE    FLURRIES  19  10  67 W10G18    30.06F WCI   8
EAGLE RIVER    FLURRIES  18   8  64 W17       30.05F WCI   3
LAND O LAKES   FLURRIES  20  10  64 SW9       30.05S WCI   9
RHINELANDER    CLOUDY    18  10  71 W12G21    30.08F WCI   5
PHILLIPS       CLOUDY    19  10  68 SW9       30.09F WCI   7
ANTIGO         FLURRIES  17  11  77 W14       30.10F WCI   3
TOMAHAWK       LGT SNOW  19  10  69 W9        30.11F WCI   7
MERRILL        FLURRIES  19  12  72 W14       30.12F WCI   6
$$

WIZ013-073-012100-
NORTHEAST WISCONSIN

CITY           SKY/WX    TMP DP  RH WIND       PRES   REMARKS
IRON MOUNTAIN  CLOUDY    26  13  57 W12G22    30.05F
MARINETTE      CLOUDY    27  12  54 SW13G21   30.13F
OCONTO         CLOUDY    27  15  61 W12G18    30.15F
$$

WIZ017-030-035>037-045-012100-
CENTRAL WISCONSIN

CITY           SKY/WX    TMP DP  RH WIND       PRES   REMARKS
MEDFORD        LGT SNOW  18  11  74 W12       30.12F WCI   5
WAUSAU         CLOUDY    19  11  70 W15       30.13F HAZE    WCI   5
MOSINEE        FLURRIES  19  14  79 SW13      30.16F WCI   7
MARSHFIELD     LGT SNOW  19  13  77 W14       30.16F WCI   6
WISC RAPIDS    CLOUDY    22  12  65 W10       30.19F
STEVENS POINT  CLOUDY    20  12  71 W12       30.16F WCI   8
WAUPACA        PTSUNNY   30  15  53 SW14G21   30.18F
SHAWANO        CLOUDY    29  15  56 SW7       30.15F
CLINTONVILLE   CLOUDY    28  16  59 SW12      30.16F
$$

WIZ038-039-048-051-012100-
FOX VALLEY

CITY           SKY/WX    TMP DP  RH WIND       PRES   REMARKS
NWS GREEN BAY  CLOUDY    27  16  63 SW13      30.17F
APPLETON       CLOUDY    27  16  63 SW16      30.18F
OSHKOSH        CLOUDY    26  15  63 SW14      30.18F
FOND DU LAC    PTSUNNY   27  15  61 SW9G21    30.19F
$$

WIZ022-050-052-012100-
EAST CENTRAL WISCONSIN

CITY           SKY/WX    TMP DP  RH WIND       PRES   REMARKS
STURGEON BAY   PTSUNNY   27  14  59 SW15      30.17F
MANITOWOC      PTSUNNY   28  17  63 W10       30.20F
SHEBOYGAN      MOSUNNY   26  15  63 SW14      30.20F
$$

LMZ563-521-522-541>543-012100-
LAKESHORE

STATION/POSITION TIME  TEMP    WIND        PRES    VSBY  WAVE
                       AIR SEA DIR/SP/G                  HT/PER
                 (UTC) (F)     (DEG/KT/KT) (MB)    (MI)  (FT/S)
SHEBOYGAN LKSHOR 2000   26     220/ 13/ 15 1024.1F
KEWAUNEE LKSHORE 2000   26     240/  8/ 14 1021.5F
NORTHPORT PIER   1900   26     220/  4/ 17 1021.3F
SISTER BAY LKSHO 2000   27     220/ 16/ 20   N/A
STURGEON BAY CG  1900   26     210/  7     1023.2      6
CHAMBERS ISLAND  2000   24     190/  9/ 18 1021.0S
MENOMINEE LKSHOR 2000   26     320/ 20     1021.5S
$$


USA.gov is the U.S. government's official web portal to all federal, state and local government web resources and services.